Tracking 19242 objects as of 19-Sep-2018
HD Live streaming from Space Station
objects crossing your sky now

EUROBIRD 4A(EUTELSAT W1)

Track EUROBIRD 4A(EUTELSAT W1) now!
EUROBIRD 4A(EUTELSAT W1) is classified as:


NORAD ID: 26487
Int'l Code: 2000-052A
Perigee: 36,338.3 km
Apogee: 36,443.4 km
Inclination: 5.5 °
Period: 1,466.7 minutes
Semi major axis: 42761 km
RCS: 8.6539 m2 (large)
Launch date: September 6, 2000
Source: European Telecommunications Satellite Organization (EUTE)
Launch site: FRENCH GUIANA (FRGUI)

Twenty-eight channels, Europe, Atlantic Islands, North Africa, Middle East, Central Asia.
aabbcc
Your satellite tracking list
Your tracking list is empty




NASA's NSSDC Master Catalog

Two Line Element Set (TLE):
1 26487U 00052A   18260.56374310 -.00000020 +00000-0 +00000-0 0  9993
2 26487 005.4932 065.5420 0012287 208.3589 173.8039 00.98178788065579
Source of the keplerian elements: AFSPC